SCP
-0 -0 0 0 0 0 0 0 0 0 0 0 0 0 0 0 0 0 0 0 0 0 0 0 0 0 0 0 0 0 0 0 0 0 0 0 0 0 0 0 0 0 0 0 0 0 0
0 0 0 0 0 0 0 0 0 0 0 0 0 0 0 0 0 0 0 0 0 0 0 0 0 0 0 0 0 0 0 0 0 0 0 0 0 0 0 0 0 0 0 0 0 0 0
0 0 0 0 0 0 0 0 0 0 0 0 0 0 0 0 0 0 0 0 0 0 0 0 0 0 0 0 0 0 0 0 0 0 0 0 0 0 0 0 0 0 0 0 0 0 0
0 0 0 0 0 0 0 0 0 0 0 0 0 0 0 0 0 0 0 0 0 0 0 0 0 0 0 0 0 0 0 0 0 0 0 0 0 0 0 0 0 0 0 0 0 0 0
0 0 0 0 0 0 0 0 0 0 0 0 0 0 0 0 0 0 0 0 0 0 0 0 0 0 0 0 0 0 0 0 0 0 0 0 0 0 0 0 0 0 0 0 0 0 0
0 0 0 0 0 0 0 0 0 0 0 0 0 0 0 0 0 0 0 0 0 0 0 0 0 0 0 0 0 0 0 0 0 0 0 0 0 0 0 0 0 0 0 0 0 0 0
0 0 0 0 0 0 0 0 0 0 0 0 0 0 0 0 0 0 0 0 0 0 0 0 0 0 0 0 0 0 0 0 0 0 0 0 0 0 0 0 0 0 0 0 0 0 0
0 0 0 0 0 0 0 0 0 0 0 0 0 0 0 0 0 0 0 0 0 0 0 0 0 0 0 0 0 0 0 0 0 0 0 0 0 0 0 0 0 0 0 0 0 0 0
0 0 0 0 0 0 0 0 0 0 0 0 0 0 0 0 0 0 0 0 0 0 0 0 0 0 0 0 0 0 0 0 0 0 0 0 0 0 0 0 0 0 0 0 0 0 0
0 0 0 0 0 0 0 0 0 0 0 0 0 0 0 0 0 0 0 0 0 0 0 0 0 0 0 0 0 0 0 0 0 0 0 0 0 0 0 0 0 0 0 0 0 0 0
0 0 0 0 0 0 0 0 0 0 0 0 0 0 0 0 0 0 0 0 0 0 0 0 0 0 0 0 0 0 0 0 0 0 0 0 0 0 0 0 0 0 0 0 0 0 0
0 0 0 0 0 0 0 0 0 0 0 0 0 0 0 0 0 0 0 0 0 0 0 0 0 0 0 0 0 0 0 0 0 0 0 0 0 0 0 0 0 0 0 0 0 0 0
0 0 0 0 0 0 0 0 0 0 0 0 0 0 0 0 0 0 0 0 0 0 0 0 0 0 0 0 0 0 0 0 0 0 0 0 0 0 0 0 0 0 0 0 0 0 0
0 0 0 0 0 0 0 0 0 0 0 0 0 0 0 0 0 0 0 0 0 0 0 0 0 0 0 0 0 0 0 0 0 0 0 0 0 0 0 0 0 0 0 0 0 0 0
0 0 0 0 0 0 0 0 0 0 0 0 0 0 0 0 0 0 0 0 0 0 0 0 0 0 0 0 0 0 0 0 0 0 0 0 0 0 0 0 0 0 0 0 0 0 0
0 0 0 0 0 0 0 0 0 0 0 0 0 0 0 0 0 0 0 0 0 0 0 0 0 0 0 0 0 0 0 0 0 0 0 0 0 0 0 0 0 0 0 0 0 0 0
0 0 0 0 0 0 0 0 0 0 0 0 0 0 0 0 0 0 0 0 0 0 0 0 0 0 0 0 0 0 0 0 0 0 0 0 0 0 0 0 0 0 0 0 0 0 0
0 0 0 0 0 0 0 0 0 0 0 0 0 0 0 0 0 0 0 0 0 0 0 0 0 0 0 0 0 0 0 0 0 0 0 0 0 0 0 0 0 0 0 0 0 0 0
0 0 0 0 0 0 0 0 0 0 0 0 0 0 0 0 0 0 0 0 0 0 0 0 0 0 0 0 0 0 0 0 0 0 0 0 0 0 0 0 0 0 0 0 0 0 0
0 0 0 0 0 0 0 0 0 0 0 0 0 0 0 0 0 0 0 0 0 0 0 0 0 0 0 0 0 0 0 0 0 0 0 0 0 0 0 0 0 0 0 0 0 0 0
0 0 0 0 0 0 0 0 0 0 0 0 0 0 0 0 0 0 0 0 0 0 0 0 0 0 0 0 0 0 0 0 0 0 0 0 0 0 0 0 0 0 0 0 0 0 0
0 0 0 0 0 0 0 0 0 0 0 0 0 0 0 0 0 0 0 0 0 0 0 0 0 0 0 0 0 0 0 0 0 0 0 0 0 0 0 0 0 0 0 0 0 0 0
0 0 0 0 0 0 0 0 0 0 0 0 0 0 0 0 0 0 0 0 0 0 0 0 0 0 0 0 0 0 0 0 0 0 0 0 0 0 0 0 0 0 0 0 0 0 0
0 0 0 0 0 0 0 0 0 0 0 0 0 0 0 0 0 0 0 0 0 0 0 0 0 0 0 0 0 0 0 0 0 0 0 0 0 0 0 0 0 0 0 0 0 0 0
0 0 0 0 0 0 0 0 0 0 0 0 0 0 0 0 0 0 0 0 0 0 0 0 0 0 0 0 0 0 0 0 0 0 0 0 0 0 0 0 0 0 0 0 0 0 0
0 0 0 0 0 0 0 0 0 0 0 0 0 0 0 0 0 0 0 0 0 0 0 0 0 0 0 0 0 0 0 0 0 0 0 0 0 0 0 0 0 0 0 0 0 0 0
0 0 0 0 0 0 0 0 0 0 0 0 0 0 0 0 0 0 0 0 0 0 0 0 0 0 0 0 0 0 0 0 0 0 0 0 0 0 0 0 0 0 0 0 0 0 0
0 0 0 -0 0 0 0 0 0 0 0 0 0 0 0 0 0 0 0 0 0 0 0 0 0 0 0 0 0 0 0 0 0 0 0 0 0 0 0 0 0 0 0 0 0 0 0
0 0 0 0 -0 0 0 0 0 0 0 0 0 0 0 0 0 0 0 0 0 0 0 0 0 0 0 0 0 0 0 0 0 0 0 0 0 0 0 0 0 0 0 0 0 0 0
Wind_Speed_500mb
27 27 30 34 37 38 39 39 39 37 34 32 30 29 27 26 25 24 23 22 22 22 22 20 20 18 16 8 13 13 10 12 14 15 13 8 5 7 6 6 5 5 5 6 7 11 11
32 32 32 32 36 38 41 42 43 42 41 39 37 35 33 31 29 28 26 25 24 25 24 23 21 21 17 12 17 17 18 19 18 18 16 12 7 9 9 5 6 3 5 9 11 8 10
42 38 35 33 34 37 40 41 44 45 46 45 43 40 37 35 33 31 30 28 27 26 26 24 24 22 23 28 20 17 18 19 20 20 18 16 13 9 12 8 3 1 9 13 10 6 9
53 46 44 40 38 38 37 39 44 44 46 46 46 44 41 39 36 34 32 30 29 27 27 25 24 21 17 24 25 30 30 23 21 21 19 18 16 12 5 14 4 5 5 8 6 5 4
47 48 46 52 46 44 42 38 41 45 46 45 46 46 43 41 39 36 34 32 30 28 27 25 22 16 14 23 28 32 27 22 23 20 19 20 21 8 11 9 6 5 12 11 4 3 5
60 47 46 50 53 54 50 46 42 44 44 47 47 47 46 45 43 39 34 31 29 29 29 25 26 11 27 16 19 26 30 26 21 25 20 14 7 8 7 16 17 13 11 10 11 6 7
41 48 55 61 61 61 55 53 54 49 45 45 46 49 48 46 45 42 34 24 21 18 35 27 15 13 8 26 22 24 31 33 22 18 16 10 15 25 38 35 10 4 8 14 6 4 8
51 45 44 52 50 52 53 55 56 60 51 49 46 44 44 43 42 41 35 22 19 8 17 34 49 39 19 28 19 30 38 25 19 17 17 8 28 30 3 19 17 13 17 25 9 5 9
46 47 57 53 44 43 46 36 46 65 62 54 50 45 39 36 34 38 42 38 26 13 13 18 47 54 46 46 30 43 52 26 13 20 33 26 5 21 17 15 22 24 28 23 18 7 8
44 45 46 51 55 58 54 45 41 41 55 68 55 48 45 38 35 42 44 35 22 3 11 14 17 21 40 37 18 38 58 24 13 29 17 19 9 14 21 23 24 30 26 17 14 10 18
35 39 44 48 51 52 51 56 57 51 46 49 43 56 56 58 39 41 40 31 32 13 15 11 10 11 27 28 28 21 50 26 20 18 15 13 20 22 22 16 25 11 12 20 14 22 10
33 34 38 40 44 49 57 57 55 56 54 60 53 50 63 64 61 47 25 39 41 8 26 8 8 12 16 11 6 12 25 14 12 11 4 10 1 10 9 6 17 29 18 11 6 6 15
33 37 38 36 38 42 45 56 63 63 63 56 66 61 57 80 79 57 46 62 9 15 5 15 11 15 16 13 8 12 25 26 23 18 29 12 17 8 9 10 5 12 20 8 11 12 15
40 39 39 42 42 42 42 45 57 68 70 69 56 59 59 61 84 71 72 25 15 39 52 12 12 13 22 20 11 14 20 25 35 14 9 22 16 30 27 36 21 33 36 13 15 12 6
50 51 42 45 46 47 46 45 48 57 64 65 56 62 60 66 94 86 70 29 31 26 33 27 14 13 19 12 12 17 24 20 27 35 26 20 15 6 11 8 25 20 22 7 10 3 3
47 55 57 57 58 52 49 47 49 52 60 57 60 47 55 53 83 94 35 34 22 27 18 31 42 33 33 26 26 30 29 18 16 39 18 10 9 3 8 8 1 12 24 11 10 10 12
40 48 51 55 57 51 49 46 46 44 43 47 48 19 42 43 73 68 26 21 29 24 33 28 38 27 23 24 33 23 24 10 27 26 44 9 7 7 8 24 35 12 15 10 7 7 7
43 39 46 41 38 43 45 44 37 33 28 47 50 12 28 35 34 13 27 30 37 26 39 27 7 34 26 29 28 34 35 27 46 36 31 21 4 14 27 1 5 23 15 29 14 12 7
46 42 39 40 41 38 38 38 34 27 37 55 34 40 29 51 22 20 11 33 37 29 32 22 27 21 24 23 16 30 26 15 38 37 35 25 11 6 6 10 7 18 23 27 11 5 21
45 42 36 41 39 35 37 34 31 23 43 59 25 9 33 49 41 14 30 30 39 38 27 47 25 25 9 29 22 15 24 14 35 37 37 51 21 30 36 12 23 24 34 31 27 18 23
48 45 38 35 40 36 35 33 28 29 27 59 36 13 17 8 32 38 29 25 39 35 34 47 18 43 42 26 31 44 37 8 9 18 13 27 29 41 50 13 14 17 40 44 47 59 34
50 47 42 35 35 42 35 35 30 34 30 40 22 13 15 12 26 20 35 16 35 32 21 19 37 34 32 34 42 30 36 25 27 17 21 12 24 41 43 21 19 15 34 54 58 51 44
53 50 41 44 38 38 36 38 36 33 34 11 19 37 25 18 21 20 25 34 27 36 18 31 25 25 25 45 45 15 4 13 8 21 33 25 29 16 42 25 7 15 54 42 42 35 44
42 56 50 46 40 37 49 41 35 28 28 27 21 9 13 16 17 20 16 22 25 28 34 10 24 24 13 22 33 15 23 20 14 8 4 17 36 12 5 13 19 15 1 29 36 31 28
37 39 49 56 45 45 47 43 31 27 25 24 29 23 8 6 12 9 9 9 20 50 36 20 22 19 44 21 6 7 3 3 4 1 0 2 11 9 10 14 5 3 9 16 28 32 23
46 46 46 50 51 44 46 46 38 36 31 26 21 24 15 4 10 10 9 12 7 5 3 3 12 54 35 6 6 12 13 9 13 8 1 5 6 12 7 12 19 2 5 7 6 12 20
53 54 51 54 57 41 49 50 48 43 44 35 19 16 14 7 8 13 7 9 19 10 5 8 11 5 15 6 7 9 10 1 14 16 13 10 5 12 9 8 8 5 12 18 15 7 9
55 58 56 61 58 50 51 51 52 48 59 43 25 17 28 11 12 21 15 9 11 15 10 16 10 4 2 8 8 7 7 11 6 3 7 17 17 8 6 7 18 22 12 16 5 10 22
54 57 59 58 72 64 51 53 54 48 54 49 30 23 26 16 9 15 22 25 23 18 18 38 0 7 14 6 4 6 5 5 7 9 3 8 3 8 14 5 5 40 9 15 23 40 28
Wind_Direction_500mb
268 263 257 254 250 247 248 249 249 249 248 250 254 258 263 266 266 267 272 277 281 284 289 292 295 299 305 286 257 246 230 216 208 205 205 225 232 162 189 164 169 219 190 213 225 195 237
264 263 265 259 255 252 249 248 250 251 252 252 254 256 259 260 262 265 266 271 276 281 283 287 289 293 293 255 259 248 240 231 222 218 223 232 236 187 126 170 231 136 249 262 267 248 222
262 261 259 264 263 256 255 252 250 251 252 255 255 256 256 257 258 259 264 269 273 277 279 282 286 287 278 264 259 244 236 230 228 227 227 220 203 179 151 145 149 79 286 285 235 221 220
253 259 263 267 266 264 257 256 255 252 251 251 254 254 254 254 255 256 260 266 270 272 274 278 281 285 261 258 246 242 237 229 221 218 213 201 185 172 122 131 82 248 243 255 125 162 158
261 250 250 265 266 266 266 260 259 256 253 251 249 250 251 253 253 254 258 264 265 267 270 274 274 261 259 247 234 232 225 219 207 196 186 180 173 138 136 187 226 208 257 222 255 189 169
254 260 251 246 260 268 264 267 263 260 256 251 248 247 249 252 254 255 256 259 263 267 264 266 250 258 234 223 215 214 209 199 183 176 151 164 140 181 166 194 236 207 217 227 234 168 215
269 256 254 255 261 248 257 264 265 261 257 253 246 244 244 248 251 252 251 253 266 263 232 214 225 194 176 200 195 196 192 178 166 167 187 161 205 215 215 214 233 177 210 238 173 145 229
260 259 254 254 263 259 251 259 257 259 255 252 249 242 241 243 245 246 238 213 216 233 290 249 240 226 214 192 175 191 183 175 176 194 136 160 229 228 192 193 197 216 237 243 267 193 233
263 258 253 260 257 246 247 257 250 257 246 247 243 242 237 238 237 234 235 228 232 250 265 253 235 231 222 216 211 198 186 191 190 177 195 213 184 190 167 170 200 225 225 233 255 159 231
266 265 261 256 251 249 252 259 254 255 248 244 235 236 234 228 233 233 232 218 205 171 269 226 215 229 206 203 225 207 193 178 186 210 182 238 172 154 189 211 200 235 216 223 212 220 257
273 268 264 260 257 252 252 254 247 253 253 252 242 234 228 225 219 213 227 202 185 137 273 109 144 184 172 183 141 181 180 196 187 170 179 200 176 189 204 206 187 255 156 201 204 225 259
278 275 272 269 266 263 257 251 248 245 244 245 240 241 232 220 220 225 194 160 155 165 240 183 131 159 151 178 131 113 170 169 160 143 262 264 161 196 214 96 185 134 108 78 94 191 248
272 279 272 268 268 266 266 262 255 247 246 242 244 234 245 225 211 209 173 152 159 199 146 179 175 175 179 163 160 169 176 183 182 190 223 211 218 173 170 131 111 185 160 194 221 208 245
258 265 277 273 268 269 270 269 263 253 254 256 244 235 241 249 224 201 178 167 202 221 213 112 129 139 187 157 193 172 165 194 215 199 145 203 231 188 193 214 187 196 190 191 213 205 183
252 260 267 277 276 273 271 274 274 261 250 249 241 243 252 242 221 202 177 198 211 211 191 163 135 174 197 199 185 176 206 217 199 197 199 191 239 187 192 152 172 186 214 176 107 1 233
256 260 265 270 274 278 278 279 277 260 249 235 233 244 242 253 221 194 202 204 229 211 156 188 207 194 189 186 181 193 186 192 204 195 198 194 253 213 162 137 110 210 152 182 227 211 234
273 257 256 268 275 277 279 280 283 260 247 222 226 225 249 245 227 192 208 221 232 225 202 187 207 213 205 183 201 199 208 181 204 199 192 132 210 144 143 208 189 162 190 206 203 203 225
275 277 252 270 279 282 283 279 287 258 244 207 207 217 231 222 199 209 203 201 218 211 223 240 226 218 199 184 199 210 214 219 190 154 180 187 174 200 203 154 269 233 220 193 204 189 239
274 273 269 257 262 277 289 282 286 239 214 202 203 216 223 209 227 209 209 214 221 197 202 206 224 221 204 197 221 214 215 190 175 170 170 170 191 193 237 222 191 214 204 215 226 62 203
268 271 269 263 257 266 285 292 283 266 209 213 204 204 214 209 236 252 203 209 216 219 218 210 224 211 168 222 220 230 221 191 201 204 192 165 178 206 225 234 160 209 205 204 196 225 209
262 268 271 266 257 252 269 284 287 280 256 214 203 226 206 206 225 246 250 196 210 213 214 203 211 222 215 229 227 233 232 164 203 217 205 184 222 219 237 238 203 210 199 196 208 222 210
258 259 265 268 267 251 256 270 283 274 275 230 194 195 172 199 224 221 234 217 195 208 169 204 225 216 219 225 217 233 226 210 213 177 188 200 226 224 236 218 217 218 212 207 213 219 234
248 258 268 259 259 245 251 260 267 275 266 260 234 226 215 214 215 222 236 232 212 201 209 209 206 227 217 231 242 248 185 209 201 190 195 186 205 194 228 208 218 266 224 205 210 214 217
248 243 246 264 260 250 239 249 255 261 264 251 250 201 204 229 210 221 215 229 233 221 219 190 210 219 175 173 131 94 78 67 59 32 317 196 208 205 169 133 215 256 32 205 206 197 209
278 272 249 242 260 250 238 243 239 246 261 267 250 222 221 256 231 164 167 201 242 231 230 193 185 191 162 123 102 126 99 136 196 79 238 42 168 151 178 215 356 284 197 186 182 227 202
266 270 276 252 247 251 244 238 242 246 252 256 264 239 207 241 220 183 164 184 168 155 107 15 158 152 160 139 156 182 196 161 197 179 143 153 340 225 166 207 217 193 174 165 116 263 196
265 261 265 270 244 257 239 240 241 243 238 239 246 243 215 225 250 193 183 175 167 147 122 133 150 189 155 156 167 173 192 162 177 189 167 156 181 214 197 220 278 172 169 164 161 260 148
260 257 253 264 261 259 240 238 237 233 226 212 225 228 209 218 231 214 204 171 156 155 158 146 116 180 164 190 176 163 166 197 178 148 191 176 167 184 149 217 249 149 120 184 135 104 160
258 254 253 251 259 253 248 236 231 230 217 209 215 215 213 223 252 235 228 225 209 201 162 168 284 163 173 136 134 118 147 180 156 193 159 219 217 187 200 196 27 163 82 189 156 153 162
Wind_Speed_850mb
27 27 30 34 37 38 39 39 39 37 34 32 30 29 27 26 25 24 23 22 22 22 22 20 20 18 16 8 13 13 10 12 14 15 13 8 5 7 6 6 5 5 5 6 7 11 11
32 32 32 32 36 38 41 42 43 42 41 39 37 35 33 31 29 28 26 25 24 25 24 23 21 21 17 12 17 17 18 19 18 18 16 12 7 9 9 5 6 3 5 9 11 8 10
42 38 35 33 34 37 40 41 44 45 46 45 43 40 37 35 33 31 30 28 27 26 26 24 24 22 23 28 20 17 18 19 20 20 18 16 13 9 12 8 3 1 9 13 10 6 9
53 46 44 40 38 38 37 39 44 44 46 46 46 44 41 39 36 34 32 30 29 27 27 25 24 21 17 24 25 30 30 23 21 21 19 18 16 12 5 14 4 5 5 8 6 5 4
47 48 46 52 46 44 42 38 41 45 46 45 46 46 43 41 39 36 34 32 30 28 27 25 22 16 14 23 28 32 27 22 23 20 19 20 21 8 11 9 6 5 12 11 4 3 5
60 47 46 50 53 54 50 46 42 44 44 47 47 47 46 45 43 39 34 31 29 29 29 25 26 11 27 16 19 26 30 26 21 25 20 14 7 8 7 16 17 13 11 10 11 6 7
41 48 55 61 61 61 55 53 54 49 45 45 46 49 48 46 45 42 34 24 21 18 35 27 15 13 8 26 22 24 31 33 22 18 16 10 15 25 38 35 10 4 8 14 6 4 8
51 45 44 52 50 52 53 55 56 60 51 49 46 44 44 43 42 41 35 22 19 8 17 34 49 39 19 28 19 30 38 25 19 17 17 8 28 30 3 19 17 13 17 25 9 5 9
46 47 57 53 44 43 46 36 46 65 62 54 50 45 39 36 34 38 42 38 26 13 13 18 47 54 46 46 30 43 52 26 13 20 33 26 5 21 17 15 22 24 28 23 18 7 8
44 45 46 51 55 58 54 45 41 41 55 68 55 48 45 38 35 42 44 35 22 3 11 14 17 21 40 37 18 38 58 24 13 29 17 19 9 14 21 23 24 30 26 17 14 10 18
35 39 44 48 51 52 51 56 57 51 46 49 43 56 56 58 39 41 40 31 32 13 15 11 10 11 27 28 28 21 50 26 20 18 15 13 20 22 22 16 25 11 12 20 14 22 10
33 34 38 40 44 49 57 57 55 56 54 60 53 50 63 64 61 47 25 39 41 8 26 8 8 12 16 11 6 12 25 14 12 11 4 10 1 10 9 6 17 29 18 11 6 6 15
33 37 38 36 38 42 45 56 63 63 63 56 66 61 57 80 79 57 46 62 9 15 5 15 11 15 16 13 8 12 25 26 23 18 29 12 17 8 9 10 5 12 20 8 11 12 15
40 39 39 42 42 42 42 45 57 68 70 69 56 59 59 61 84 71 72 25 15 39 52 12 12 13 22 20 11 14 20 25 35 14 9 22 16 30 27 36 21 33 36 13 15 12 6
50 51 42 45 46 47 46 45 48 57 64 65 56 62 60 66 94 86 70 29 31 26 33 27 14 13 19 12 12 17 24 20 27 35 26 20 15 6 11 8 25 20 22 7 10 3 3
47 55 57 57 58 52 49 47 49 52 60 57 60 47 55 53 83 94 35 34 22 27 18 31 42 33 33 26 26 30 29 18 16 39 18 10 9 3 8 8 1 12 24 11 10 10 12
40 48 51 55 57 51 49 46 46 44 43 47 48 19 42 43 73 68 26 21 29 24 33 28 38 27 23 24 33 23 24 10 27 26 44 9 7 7 8 24 35 12 15 10 7 7 7
43 39 46 41 38 43 45 44 37 33 28 47 50 12 28 35 34 13 27 30 37 26 39 27 7 34 26 29 28 34 35 27 46 36 31 21 4 14 27 1 5 23 15 29 14 12 7
46 42 39 40 41 38 38 38 34 27 37 55 34 40 29 51 22 20 11 33 37 29 32 22 27 21 24 23 16 30 26 15 38 37 35 25 11 6 6 10 7 18 23 27 11 5 21
45 42 36 41 39 35 37 34 31 23 43 59 25 9 33 49 41 14 30 30 39 38 27 47 25 25 9 29 22 15 24 14 35 37 37 51 21 30 36 12 23 24 34 31 27 18 23
48 45 38 35 40 36 35 33 28 29 27 59 36 13 17 8 32 38 29 25 39 35 34 47 18 43 42 26 31 44 37 8 9 18 13 27 29 41 50 13 14 17 40 44 47 59 34
50 47 42 35 35 42 35 35 30 34 30 40 22 13 15 12 26 20 35 16 35 32 21 19 37 34 32 34 42 30 36 25 27 17 21 12 24 41 43 21 19 15 34 54 58 51 44
53 50 41 44 38 38 36 38 36 33 34 11 19 37 25 18 21 20 25 34 27 36 18 31 25 25 25 45 45 15 4 13 8 21 33 25 29 16 42 25 7 15 54 42 42 35 44
42 56 50 46 40 37 49 41 35 28 28 27 21 9 13 16 17 20 16 22 25 28 34 10 24 24 13 22 33 15 23 20 14 8 4 17 36 12 5 13 19 15 1 29 36 31 28
37 39 49 56 45 45 47 43 31 27 25 24 29 23 8 6 12 9 9 9 20 50 36 20 22 19 44 21 6 7 3 3 4 1 0 2 11 9 10 14 5 3 9 16 28 32 23
46 46 46 50 51 44 46 46 38 36 31 26 21 24 15 4 10 10 9 12 7 5 3 3 12 54 35 6 6 12 13 9 13 8 1 5 6 12 7 12 19 2 5 7 6 12 20
53 54 51 54 57 41 49 50 48 43 44 35 19 16 14 7 8 13 7 9 19 10 5 8 11 5 15 6 7 9 10 1 14 16 13 10 5 12 9 8 8 5 12 18 15 7 9
55 58 56 61 58 50 51 51 52 48 59 43 25 17 28 11 12 21 15 9 11 15 10 16 10 4 2 8 8 7 7 11 6 3 7 17 17 8 6 7 18 22 12 16 5 10 22
54 57 59 58 72 64 51 53 54 48 54 49 30 23 26 16 9 15 22 25 23 18 18 38 0 7 14 6 4 6 5 5 7 9 3 8 3 8 14 5 5 40 9 15 23 40 28
Wind_Direction_850mb
268 263 257 254 250 247 248 249 249 249 248 250 254 258 263 266 266 267 272 277 281 284 289 292 295 299 305 286 257 246 230 216 208 205 205 225 232 162 189 164 169 219 190 213 225 195 237
264 263 265 259 255 252 249 248 250 251 252 252 254 256 259 260 262 265 266 271 276 281 283 287 289 293 293 255 259 248 240 231 222 218 223 232 236 187 126 170 231 136 249 262 267 248 222
262 261 259 264 263 256 255 252 250 251 252 255 255 256 256 257 258 259 264 269 273 277 279 282 286 287 278 264 259 244 236 230 228 227 227 220 203 179 151 145 149 79 286 285 235 221 220
253 259 263 267 266 264 257 256 255 252 251 251 254 254 254 254 255 256 260 266 270 272 274 278 281 285 261 258 246 242 237 229 221 218 213 201 185 172 122 131 82 248 243 255 125 162 158
261 250 250 265 266 266 266 260 259 256 253 251 249 250 251 253 253 254 258 264 265 267 270 274 274 261 259 247 234 232 225 219 207 196 186 180 173 138 136 187 226 208 257 222 255 189 169
254 260 251 246 260 268 264 267 263 260 256 251 248 247 249 252 254 255 256 259 263 267 264 266 250 258 234 223 215 214 209 199 183 176 151 164 140 181 166 194 236 207 217 227 234 168 215
269 256 254 255 261 248 257 264 265 261 257 253 246 244 244 248 251 252 251 253 266 263 232 214 225 194 176 200 195 196 192 178 166 167 187 161 205 215 215 214 233 177 210 238 173 145 229
260 259 254 254 263 259 251 259 257 259 255 252 249 242 241 243 245 246 238 213 216 233 290 249 240 226 214 192 175 191 183 175 176 194 136 160 229 228 192 193 197 216 237 243 267 193 233
263 258 253 260 257 246 247 257 250 257 246 247 243 242 237 238 237 234 235 228 232 250 265 253 235 231 222 216 211 198 186 191 190 177 195 213 184 190 167 170 200 225 225 233 255 159 231
266 265 261 256 251 249 252 259 254 255 248 244 235 236 234 228 233 233 232 218 205 171 269 226 215 229 206 203 225 207 193 178 186 210 182 238 172 154 189 211 200 235 216 223 212 220 257
273 268 264 260 257 252 252 254 247 253 253 252 242 234 228 225 219 213 227 202 185 137 273 109 144 184 172 183 141 181 180 196 187 170 179 200 176 189 204 206 187 255 156 201 204 225 259
278 275 272 269 266 263 257 251 248 245 244 245 240 241 232 220 220 225 194 160 155 165 240 183 131 159 151 178 131 113 170 169 160 143 262 264 161 196 214 96 185 134 108 78 94 191 248
272 279 272 268 268 266 266 262 255 247 246 242 244 234 245 225 211 209 173 152 159 199 146 179 175 175 179 163 160 169 176 183 182 190 223 211 218 173 170 131 111 185 160 194 221 208 245
258 265 277 273 268 269 270 269 263 253 254 256 244 235 241 249 224 201 178 167 202 221 213 112 129 139 187 157 193 172 165 194 215 199 145 203 231 188 193 214 187 196 190 191 213 205 183
252 260 267 277 276 273 271 274 274 261 250 249 241 243 252 242 221 202 177 198 211 211 191 163 135 174 197 199 185 176 206 217 199 197 199 191 239 187 192 152 172 186 214 176 107 1 233
256 260 265 270 274 278 278 279 277 260 249 235 233 244 242 253 221 194 202 204 229 211 156 188 207 194 189 186 181 193 186 192 204 195 198 194 253 213 162 137 110 210 152 182 227 211 234
273 257 256 268 275 277 279 280 283 260 247 222 226 225 249 245 227 192 208 221 232 225 202 187 207 213 205 183 201 199 208 181 204 199 192 132 210 144 143 208 189 162 190 206 203 203 225
275 277 252 270 279 282 283 279 287 258 244 207 207 217 231 222 199 209 203 201 218 211 223 240 226 218 199 184 199 210 214 219 190 154 180 187 174 200 203 154 269 233 220 193 204 189 239
274 273 269 257 262 277 289 282 286 239 214 202 203 216 223 209 227 209 209 214 221 197 202 206 224 221 204 197 221 214 215 190 175 170 170 170 191 193 237 222 191 214 204 215 226 62 203
268 271 269 263 257 266 285 292 283 266 209 213 204 204 214 209 236 252 203 209 216 219 218 210 224 211 168 222 220 230 221 191 201 204 192 165 178 206 225 234 160 209 205 204 196 225 209
262 268 271 266 257 252 269 284 287 280 256 214 203 226 206 206 225 246 250 196 210 213 214 203 211 222 215 229 227 233 232 164 203 217 205 184 222 219 237 238 203 210 199 196 208 222 210
258 259 265 268 267 251 256 270 283 274 275 230 194 195 172 199 224 221 234 217 195 208 169 204 225 216 219 225 217 233 226 210 213 177 188 200 226 224 236 218 217 218 212 207 213 219 234
248 258 268 259 259 245 251 260 267 275 266 260 234 226 215 214 215 222 236 232 212 201 209 209 206 227 217 231 242 248 185 209 201 190 195 186 205 194 228 208 218 266 224 205 210 214 217
248 243 246 264 260 250 239 249 255 261 264 251 250 201 204 229 210 221 215 229 233 221 219 190 210 219 175 173 131 94 78 67 59 32 317 196 208 205 169 133 215 256 32 205 206 197 209
278 272 249 242 260 250 238 243 239 246 261 267 250 222 221 256 231 164 167 201 242 231 230 193 185 191 162 123 102 126 99 136 196 79 238 42 168 151 178 215 356 284 197 186 182 227 202
266 270 276 252 247 251 244 238 242 246 252 256 264 239 207 241 220 183 164 184 168 155 107 15 158 152 160 139 156 182 196 161 197 179 143 153 340 225 166 207 217 193 174 165 116 263 196
265 261 265 270 244 257 239 240 241 243 238 239 246 243 215 225 250 193 183 175 167 147 122 133 150 189 155 156 167 173 192 162 177 189 167 156 181 214 197 220 278 172 169 164 161 260 148
260 257 253 264 261 259 240 238 237 233 226 212 225 228 209 218 231 214 204 171 156 155 158 146 116 180 164 190 176 163 166 197 178 148 191 176 167 184 149 217 249 149 120 184 135 104 160
258 254 253 251 259 253 248 236 231 230 217 209 215 215 213 223 252 235 228 225 209 201 162 168 284 163 173 136 134 118 147 180 156 193 159 219 217 187 200 196 27 163 82 189 156 153 162